Location: Berlín
(1.6843°N, 75.3774°W)
Time: 20:14:27
(UTC+00:00)

Daily predictions for brighter satellites

Satellite Brightness Start Highest point End
(mag) Time Altitude Azimuth Time Altitude Azimuth Time Altitude Azimuth
Spelda 4.4 22:34:37 10° WSW 22:38:55 72° S 23:01:23 10° E
Cosmos 2034 Rocket 4.0 22:58:09 10° S 23:04:16 70° E 23:10:24 10° N
ATLAS 5 CENTAUR R/B 3.0 22:59:33 10° N 23:05:02 38° ENE 23:11:17 10° SE
IRS-P3 4.4 23:00:44 10° SSE 23:05:48 46° ENE 23:10:52 10° N
Cosmos 968 Rocket 3.6 23:03:53 10° SSW 23:08:58 84° WNW 23:14:05 10° N
SL-4 R/B 1.8 23:10:57 10° NNW 23:14:33 58° NE 23:18:22 10° SE
Landsat 7 3.9 23:09:55 10° S 23:14:35 85° W 23:19:13 10° NNW
SPOT 1/Viking Rocket 4.2 23:10:37 10° SE 23:15:08 31° ENE 23:19:38 10° NNE
SJ-6F 4.3 23:12:46 10° SSE 23:16:39 65° E 23:20:31 10° N
Ariane H10-3 2.8 23:16:10 10° WNW 23:18:19 28° N 23:21:13 11° ENE
SJ-12 4.1 23:14:38 10° S 23:18:26 68° WSW 23:22:12 10° NNW
Yuri Rocket 3.6 23:12:26 10° WSW 23:18:32 70° NNW 23:23:06 10° NE
ARIANE 5 DEB (SYLDA) 4.3 23:23:03 10° SSW 23:23:37 11° S 23:24:12 10° SSE
Tiangong -1.8 23:21:47 10° NNW 23:24:49 44° NE 23:27:51 10° ESE
SWIFT 2.6 23:27:28 10° SW 23:30:43 40° SSE 23:33:05 16° E
Cosmos 1833 Rocket 3.9 23:25:43 10° NNW 23:31:03 46° WSW 23:36:25 10° S
Cosmos 1741 Rocket 4.3 23:26:01 10° SSW 23:31:12 69° WNW 23:36:24 10° N
RESURS DK-1 2.8 23:29:21 10° N 23:32:57 34° ENE 23:36:34 10° SE
Cosmos 2279 Rocket 4.4 23:29:57 10° SSE 23:35:39 39° E 23:41:19 10° NNE
Cosmos 540 Rocket 3.3 23:32:20 10° N 23:37:22 69° ENE 23:42:25 10° SSE
Delta 2 Rocket 4.2 23:36:43 10° NNW 23:40:04 26° NE 23:41:14 22° ENE
Ariane H10+ 3.4 23:23:47 10° W 23:40:55 65° S 23:43:54 18° E
ARIANE 3 DEB 1.6 23:39:30 10° WNW 23:42:06 53° N 23:42:39 39° NE
SJ-7 4.3 23:39:39 10° SSE 23:43:13 47° ENE 23:46:46 10° N
Cosmos 1763 Rocket 3.7 23:41:33 10° NNW 23:46:37 71° WSW 23:51:37 10° S
Cosmos 2026 Rocket 4.4 23:43:12 10° NNE 23:48:50 37° E 23:54:32 10° SSE
NOSS 3-2 (A) 4.2 23:47:58 10° SSE 23:51:23 19° ESE 23:51:44 19° ESE
Cosmos 1536 Rocket 3.7 23:48:57 10° N 23:53:17 73° W 23:57:36 10° S
NOAA 6 4.4 23:48:55 10° SE 23:53:43 39° ENE 23:58:28 10° N
